This is the latest recevied weather packets stored in our database for station/object N3UJJ-1. If no packets are shown the sender has not sent any weather packets the latest 10 day(s).
| Time | Temp. | Humidity | Pressure | Rain* | Wind** | Luminosity | Snow |
|---|---|---|---|---|---|---|---|
| 1777522016 | 11.67° C | 94% | 1006.8 hPa | 0.25 mm | - | - | - |
| 1777521116 | 12.22° C | 93% | 1007.2 hPa | 0.25 mm | - | - | - |
| 1777520216 | 12.22° C | 93% | 1006.9 hPa | 0.25 mm | - | - | - |
| 1777519316 | 12.22° C | 92% | 1006.8 hPa | 0.25 mm | - | - | - |
| 1777518416 | 12.78° C | 91% | 1006.7 hPa | 0 mm | - | - | - |
| 1777517516 | 12.78° C | 90% | 1006.8 hPa | 0 mm | - | - | - |
| 1777516616 | 12.22° C | 91% | 1006.9 hPa | 0 mm | - | - | - |
| 1777515715 | 12.22° C | 91% | 1007.2 hPa | 0 mm | - | - | - |
| 1777514815 | 12.22° C | 92% | 1007 hPa | 0 mm | - | - | - |
| 1777513915 | 12.22° C | 92% | 1007.4 hPa | 0 mm | - | - | - |
| 1777513015 | 12.22° C | 92% | 1007.6 hPa | 0 mm | - | - | - |
| 1777512115 | 12.22° C | 92% | 1007.5 hPa | 0 mm | - | - | - |
| 1777511215 | 12.22° C | 92% | 1007.5 hPa | 0.25 mm | - | - | - |
| 1777510315 | 12.22° C | 92% | 1007.3 hPa | 0.25 mm | - | - | - |
| 1777509415 | 12.22° C | 92% | 1007.2 hPa | 0.51 mm | - | - | - |
| 1777508514 | 12.22° C | 92% | 1007.2 hPa | 0.51 mm | - | - | - |
| 1777507614 | 12.22° C | 92% | 1007.5 hPa | 0.51 mm | - | - | - |
| 1777506714 | 12.78° C | 92% | 1007.1 hPa | 0.51 mm | - | - | - |
| 1777505814 | 12.78° C | 91% | 1006.9 hPa | 1.02 mm | - | - | - |
| 1777504914 | 13.33° C | 90% | 1007.6 hPa | 1.02 mm | - | - | - |
| 1777504014 | 13.33° C | 89% | 1007.4 hPa | 0.76 mm | - | - | - |
| 1777503113 | 13.89° C | 88% | 1007.5 hPa | 0.76 mm | - | - | - |
| 1777502213 | 14.44° C | 86% | 1007.4 hPa | 0 mm | - | - | - |
| 1777501313 | 15° C | 85% | 1007.6 hPa | 0 mm | - | - | - |
| 1777500413 | 15° C | 84% | 1007.8 hPa | 0 mm | - | - | - |
* Rain latest hour (hover to see other rain measurements)
** Current wind speed in m/s (hover to see current wind gust speed)